Cambridge, MD

1:57 AM EDT on April 25, 2018 (GMT -0400)
Cambridge-Dorchester

Weather History for KCGE - April, 2013

Change the Weather History Date:

Tuesday, April 9, 2013

  Actual Average (KESN) Record (KESN)
Temperature  
Mean Temperature 66 °F -  
Max Temperature 80 °F 61 °F 86 °F (1959)
Min Temperature 53 °F 37 °F 29 °F (1950)
Cooling Degree Days 2    
Growing Degree Days 16 (Base 50)    
Moisture  
Dew Point 52 °F    
Average Humidity 57    
Maximum Humidity 88    
Minimum Humidity 34    
Precipitation  
Precipitation 0.00 in - - ()
Sea Level Pressure  
Sea Level Pressure 30.02 in    
Wind  
Wind Speed 7 mph (SSW)    
Max Wind Speed 12 mph    
Max Gust Speed 18 mph    
Visibility 10 miles    
Events      
Averages and records for this station are not official NWS values.
T = Trace of Precipitation, MM = Missing Value Source: NWS Daily Summary

Daily Weather History Graph

Daily Weather History Graph

Search for Another Location

Airport or City:

Astronomy

Apr. 09, 2013 Rise Set
Actual Time 6:36 AM EDT 7:35 PM EDT
Civil Twilight 6:09 AM EDT 8:02 PM EDT
Nautical Twilight 5:37 AM EDT 8:34 PM EDT
Astronomical Twilight 5:03 AM EDT 9:08 PM EDT
Moon 5:57 AM EDT (4/9) 7:08 PM EDT (4/9)
Length of Visible Light 13h 52m
Length of Day
12h 58m
Waning Crescent, 1% of the Moon is Illuminated
Apr 9
Waning Crescent
Apr 10
New
Apr 18
First Quarter
Apr 25
Full
May 2
Last Quarter

Hourly Weather History & Observations

Time (EDT) Temp. Dew Point Humidity Pressure Visibility Wind Dir Wind Speed Gust Speed Precip Events Conditions
12:19 AM 59.0 °F 51.8 °F 77% 30.01 in 10.0 mi SSE 6.9 mph - N/A   Clear
12:39 AM 59.0 °F 50.0 °F 72% 30.01 in 10.0 mi South 6.9 mph - N/A   Clear
12:59 AM 62.6 °F 50.0 °F 63% 30.01 in 10.0 mi South 9.2 mph - N/A   Clear
1:19 AM 62.6 °F 50.0 °F 63% 30.01 in 10.0 mi South 6.9 mph - N/A   Clear
1:39 AM 64.4 °F 50.0 °F 59% 30.01 in 10.0 mi South 8.1 mph - N/A   Clear
1:59 AM 64.4 °F 50.0 °F 59% 30.00 in 10.0 mi South 9.2 mph - N/A   Clear
2:19 AM 64.4 °F 50.0 °F 59% 30.00 in 10.0 mi South 9.2 mph - N/A   Clear
2:39 AM 62.6 °F 50.0 °F 63% 30.00 in 10.0 mi South 9.2 mph - N/A   Clear
3:19 AM 62.6 °F 50.0 °F 63% 30.00 in 10.0 mi South 8.1 mph - N/A   Clear
3:39 AM 62.6 °F 50.0 °F 63% 30.00 in 10.0 mi South 8.1 mph - N/A   Clear
3:59 AM 60.8 °F 50.0 °F 68% 30.00 in 10.0 mi South 8.1 mph - N/A   Clear
4:19 AM 62.6 °F 50.0 °F 63% 30.01 in 10.0 mi SSW 4.6 mph - N/A   Scattered Clouds
4:39 AM 60.8 °F 50.0 °F 68% 30.01 in 10.0 mi SSW 4.6 mph - N/A   Clear
4:59 AM 60.8 °F 50.0 °F 68% 30.01 in 10.0 mi SSW 5.8 mph - N/A   Clear
5:19 AM 60.8 °F 50.0 °F 68% 30.02 in 10.0 mi SW 3.5 mph - N/A   Clear
5:39 AM 59.0 °F 50.0 °F 72% 30.02 in 10.0 mi SSW 3.5 mph - N/A   Clear
6:00 AM 59.0 °F 50.0 °F 72% 30.03 in 10.0 mi Calm Calm - N/A   Clear
6:20 AM 55.4 °F 50.0 °F 82% 30.04 in 10.0 mi SSE 4.6 mph - N/A   Clear
6:40 AM 55.4 °F 50.0 °F 82% 30.04 in 10.0 mi SSE 5.8 mph - N/A   Clear
7:00 AM 53.6 °F 50.0 °F 88% 30.05 in 10.0 mi South 4.6 mph - N/A   Clear
7:20 AM 53.6 °F 50.0 °F 88% 30.06 in 10.0 mi South 3.5 mph - N/A   Clear
7:40 AM 55.4 °F 51.8 °F 88% 30.07 in 10.0 mi Calm Calm - N/A   Clear
8:00 AM 59.0 °F 51.8 °F 77% 30.07 in 10.0 mi SSW 3.5 mph - N/A   Clear
8:20 AM 62.6 °F 51.8 °F 68% 30.08 in 10.0 mi SSW 3.5 mph - N/A   Clear
8:40 AM 64.4 °F 51.8 °F 64% 30.08 in 10.0 mi SW 5.8 mph - N/A   Clear
9:00 AM 68.0 °F 53.6 °F 60% 30.07 in 10.0 mi SW 6.9 mph - N/A   Clear
9:20 AM 69.8 °F 53.6 °F 56% 30.07 in 10.0 mi SSW 8.1 mph - N/A   Clear
9:40 AM 69.8 °F 53.6 °F 56% 30.08 in 10.0 mi SW 4.6 mph - N/A   Clear
10:00 AM 71.6 °F 53.6 °F 53% 30.08 in 10.0 mi WSW 9.2 mph - N/A   Clear
10:20 AM 73.4 °F 53.6 °F 50% 30.08 in 10.0 mi West 6.9 mph - N/A   Clear
10:40 AM 73.4 °F 51.8 °F 47% 30.08 in 10.0 mi West 8.1 mph - N/A   Clear
11:00 AM 75.2 °F 51.8 °F 44% 30.08 in 10.0 mi West 10.4 mph 16.1 mph N/A   Clear
11:20 AM 77.0 °F 53.6 °F 44% 30.08 in 10.0 mi West 5.8 mph - N/A   Clear
11:40 AM 77.0 °F 51.8 °F 41% 30.08 in 10.0 mi NW 8.1 mph - N/A   Clear
12:00 PM 77.0 °F 51.8 °F 41% 30.08 in 10.0 mi West 6.9 mph - N/A   Clear
12:20 PM 77.0 °F 51.8 °F 41% 30.06 in 10.0 mi West 5.8 mph - N/A   Clear
12:40 PM 77.0 °F 51.8 °F 41% 30.06 in 10.0 mi WSW 6.9 mph - N/A   Clear
1:00 PM 77.0 °F 50.0 °F 39% 30.05 in 10.0 mi WSW 10.4 mph - N/A   Clear
1:20 PM 78.8 °F 51.8 °F 39% 30.05 in 10.0 mi WSW 10.4 mph - N/A   Clear
1:40 PM 78.8 °F 51.8 °F 39% 30.04 in 10.0 mi West 9.2 mph 16.1 mph N/A   Clear
2:00 PM 78.8 °F 50.0 °F 36% 30.04 in 10.0 mi West 6.9 mph - N/A   Clear
2:21 PM 78.8 °F 51.8 °F 39% 30.03 in 10.0 mi West 8.1 mph - N/A   Clear
2:41 PM 80.6 °F 51.8 °F 37% 30.02 in 10.0 mi WSW 5.8 mph - N/A   Clear
3:01 PM 80.6 °F 51.8 °F 37% 30.02 in 10.0 mi SW 10.4 mph - N/A   Clear
3:21 PM 78.8 °F 51.8 °F 39% 30.02 in 10.0 mi SSW 11.5 mph - N/A   Clear
4:21 PM 80.6 °F 50.0 °F 34% 29.99 in 10.0 mi South 6.9 mph - N/A   Clear
4:41 PM 78.8 °F 50.0 °F 36% 29.99 in 10.0 mi SSW 6.9 mph - N/A   Clear
5:01 PM 78.8 °F 53.6 °F 42% 29.99 in 10.0 mi SSE 6.9 mph - N/A   Clear
5:21 PM 78.8 °F 53.6 °F 42% 29.99 in 10.0 mi SSE 9.2 mph - N/A   Clear
5:41 PM 77.0 °F 51.8 °F 41% 29.99 in 10.0 mi SSE 8.1 mph 18.4 mph N/A   Clear
6:01 PM 77.0 °F 50.0 °F 39% 29.99 in 10.0 mi South 6.9 mph - N/A   Clear
6:21 PM 75.2 °F 50.0 °F 41% 29.99 in 10.0 mi South 9.2 mph 17.3 mph N/A   Clear
6:41 PM 73.4 °F 50.0 °F 44% 29.99 in 10.0 mi SSE 8.1 mph - N/A   Clear
7:01 PM 73.4 °F 51.8 °F 47% 29.98 in 10.0 mi SSE 8.1 mph - N/A   Clear
7:21 PM 71.6 °F 50.0 °F 46% 29.98 in 10.0 mi SSE 6.9 mph - N/A   Clear
7:41 PM 69.8 °F 50.0 °F 49% 29.98 in 10.0 mi SSE 6.9 mph - N/A   Clear
8:01 PM 69.8 °F 51.8 °F 53% 29.99 in 10.0 mi SSE 6.9 mph - N/A   Clear
8:21 PM 69.8 °F 53.6 °F 56% 29.99 in 10.0 mi SSE 5.8 mph - N/A   Clear
8:41 PM 64.4 °F 51.8 °F 64% 29.99 in 10.0 mi SSE 4.6 mph - N/A   Clear
9:01 PM 69.8 °F 53.6 °F 56% 30.00 in 10.0 mi South 6.9 mph - N/A   Clear
9:21 PM 69.8 °F 53.6 °F 56% 30.00 in 10.0 mi SSE 6.9 mph - N/A   Clear
9:41 PM 69.8 °F 53.6 °F 56% 30.00 in 10.0 mi South 8.1 mph - N/A   Clear
10:01 PM 68.0 °F 53.6 °F 60% 29.99 in 10.0 mi South 3.5 mph - N/A   Clear
10:21 PM 64.4 °F 53.6 °F 68% 29.99 in 10.0 mi South 3.5 mph - N/A   Clear
10:41 PM 62.6 °F 53.6 °F 72% 29.98 in 10.0 mi SSE 3.5 mph - N/A   Clear
11:01 PM 62.6 °F 53.6 °F 72% 29.98 in 10.0 mi Calm Calm - N/A   Clear
11:22 PM 62.6 °F 53.6 °F 72% 29.98 in 10.0 mi SSE 3.5 mph - N/A   Clear
11:42 PM 60.8 °F 53.6 °F 77% 29.97 in 10.0 mi SSE 3.5 mph - N/A   Clear